COSMOS 2547 (705K)

Last updated on Tue Jul 01 2025 00:03:16 GMT+0000 (Coordinated Universal Time)

1 46805U 20075A 25181.46608080 .00000053 00000+0 00000+0 0 9992 2 46805 64.5974 204.2147 0009164 240.8055 119.1502 2.13100326 36415
UTC large
Height (km)
Speed (km/s)
/
Latitude / Longitude
Inclination (degrees)
Orbital Period (minutes)
Azimuth
Elevation
Range (km)
Doppler Factor

Next 0 passes for location: London (51.5072 / 0.1276)

Sorry there are no passes over London.